Powrót do katalogu

STARLINK-35473

AktywnyŁącznośćVLEO
NORAD 65937·PAYLOAD·🇺🇸 United States

Wystrzelony Oct 8, 2025 z Vandenberg Space Force Base

Loading…

Następne Przeloty (najbliższe 24 godziny)

TLE

ŚwieżeSource: CelesTrak SupGP

Epoka: Sep 14, 2026, 15:33 UTC

1 65937C 25225AD  26257.64840278 -.00016124  00000+0 -47668-3 0  2573
2 65937  53.1606   5.2317 0001251  84.2038  49.0643 15.34379203    19

Śledź STARLINK-35473 w czasie rzeczywistym z AllMySat

Download on the App Store